User: anonymous   Login
Location: Owatonna
(44.0840°N, 93.2260°W)
Time: 17:09:56
(UTC-05:00)
Language:

Tiangong 1 - Orbit

View from above orbital plane
View from above orbital plane
View from above satellite
View from above satellite

Ground track
Ground track

The orbit data is extracted from the following two-line orbital elements,

1 37820U 11053A   15187.38263720  .00021421  00000-0  24053-3 0  9990
2 37820 042.7655 160.3643 0012591 164.8890 324.2377 15.62103356216322
Epoch (UTC): 06 July 2015 09:10:59
Eccentricity: 0.0012591
inclination: 42.7655°
perigee height: 373 km
apogee height: 390 km
right ascension of ascending node: 160.3643°
argument of perigee: 164.8890°
revolutions per day: 15.62103356
mean anomaly at epoch: 324.2377°
orbit number at epoch: 21632

The dashed part of the orbit path shows where the satellite is in the earth's shadow,  

DLR